TimeEDT,TemperatureF,Dew PointF,Humidity,Sea Level PressureIn,VisibilityMPH,Wind Direction,Wind SpeedMPH,Gust SpeedMPH,PrecipitationIn,Events,Conditions,WindDirDegrees,DateUTC
12:43 AM,33.8,30.2,87,30.03,2.5,WNW,8.1,-,0.00,Snow,Light Snow,290,2013-03-26 04:43:00
12:50 AM,33.8,30.2,87,30.03,3.0,WNW,10.4,-,0.00,Snow,Light Snow,290,2013-03-26 04:50:00
12:56 AM,33.1,30.9,92,30.04,3.0,WNW,9.2,-,0.00,Snow,Light Snow,290,2013-03-26 04:56:00
1:09 AM,33.8,30.2,87,30.03,4.0,WNW,8.1,-,0.00,Snow,Light Snow,290,2013-03-26 05:09:00
1:56 AM,34.0,30.9,89,30.05,7.0,WNW,9.2,-,0.00,,Overcast,290,2013-03-26 05:56:00
2:41 AM,33.8,30.2,87,30.05,8.0,WNW,10.4,-,0.00,,Overcast,300,2013-03-26 06:41:00
2:56 AM,34.0,30.0,85,30.06,10.0,WNW,10.4,-,0.00,,Overcast,290,2013-03-26 06:56:00
3:56 AM,34.0,30.0,85,30.07,8.0,NW,9.2,-,N/A,,Overcast,310,2013-03-26 07:56:00
4:56 AM,34.0,30.0,85,30.07,9.0,WNW,9.2,-,0.00,,Overcast,300,2013-03-26 08:56:00
5:56 AM,34.0,28.9,82,30.09,6.0,WNW,9.2,-,0.00,Snow,Light Snow,300,2013-03-26 09:56:00
6:07 AM,33.8,30.2,87,30.07,5.0,WNW,6.9,-,0.00,Snow,Light Snow,300,2013-03-26 10:07:00
6:27 AM,33.8,30.2,87,30.08,2.5,WNW,8.1,-,0.00,Snow,Light Snow,300,2013-03-26 10:27:00
6:38 AM,33.8,30.2,87,30.08,3.0,WNW,9.2,-,0.00,Snow,Light Snow,300,2013-03-26 10:38:00
6:56 AM,34.0,30.0,85,30.10,9.0,WNW,9.2,-,0.00,,Overcast,300,2013-03-26 10:56:00
7:38 AM,33.8,28.4,81,30.10,9.0,WNW,9.2,-,N/A,,Overcast,300,2013-03-26 11:38:00
7:46 AM,33.8,28.4,81,30.10,8.0,NW,9.2,-,0.00,Snow,Light Snow,310,2013-03-26 11:46:00
7:56 AM,34.0,28.9,82,30.12,5.0,WNW,10.4,-,0.00,Snow,Light Snow,300,2013-03-26 11:56:00
8:56 AM,34.0,28.9,82,30.15,3.0,NW,9.2,-,0.00,Snow,Light Snow,310,2013-03-26 12:56:00
9:00 AM,33.8,28.4,81,30.14,2.0,NW,9.2,-,0.00,Snow,Light Snow,320,2013-03-26 13:00:00
9:22 AM,33.8,30.2,87,30.15,1.5,NW,8.1,-,0.00,Snow,Light Snow,310,2013-03-26 13:22:00
9:51 AM,33.8,28.4,81,30.16,2.0,NW,11.5,-,0.00,Snow,Light Snow,310,2013-03-26 13:51:00
9:56 AM,33.1,28.9,85,30.17,2.0,NW,9.2,-,0.00,Snow,Light Snow,310,2013-03-26 13:56:00
9:58 AM,33.8,30.2,87,30.16,1.2,WNW,8.1,-,0.00,Snow,Light Snow,300,2013-03-26 13:58:00
10:08 AM,33.8,30.2,87,30.16,2.0,NW,10.4,-,0.00,Snow,Light Snow,310,2013-03-26 14:08:00
10:56 AM,34.0,30.9,89,30.19,2.5,WNW,6.9,-,0.01,Snow,Light Snow,290,2013-03-26 14:56:00
11:05 AM,33.8,30.2,87,30.18,2.5,NW,5.8,-,0.00,Snow,Light Snow,310,2013-03-26 15:05:00
11:09 AM,35.6,32.0,87,30.18,3.0,NW,6.9,-,0.00,Snow,Light Snow,310,2013-03-26 15:09:00
11:25 AM,35.6,30.2,81,30.19,7.0,WNW,8.1,-,0.00,Snow,Light Snow,300,2013-03-26 15:25:00
11:56 AM,39.0,30.9,73,30.20,9.0,NNW,10.4,-,0.00,,Overcast,330,2013-03-26 15:56:00
12:56 PM,42.1,32.0,67,30.20,10.0,Variable,6.9,-,N/A,,Mostly Cloudy,0,2013-03-26 16:56:00
1:35 PM,39.2,28.4,65,30.19,10.0,NW,5.8,-,N/A,,Mostly Cloudy,310,2013-03-26 17:35:00
1:56 PM,41.0,27.0,57,30.20,10.0,NW,11.5,-,N/A,,Mostly Cloudy,320,2013-03-26 17:56:00
2:56 PM,39.9,26.1,58,30.21,10.0,NW,11.5,-,N/A,,Overcast,310,2013-03-26 18:56:00
3:56 PM,42.1,25.0,51,30.21,10.0,WNW,12.7,-,N/A,,Overcast,290,2013-03-26 19:56:00
4:56 PM,41.0,24.1,51,30.22,10.0,WNW,10.4,-,N/A,,Overcast,300,2013-03-26 20:56:00
5:56 PM,41.0,24.1,51,30.22,10.0,West,16.1,-,N/A,,Overcast,280,2013-03-26 21:56:00
6:56 PM,39.9,25.0,55,30.24,10.0,West,10.4,-,N/A,,Overcast,280,2013-03-26 22:56:00
7:56 PM,39.0,25.0,57,30.26,10.0,WNW,15.0,-,N/A,,Overcast,290,2013-03-26 23:56:00
8:56 PM,37.9,27.0,65,30.28,10.0,WNW,9.2,-,N/A,,Overcast,290,2013-03-27 00:56:00
9:56 PM,37.0,27.0,67,30.30,10.0,West,8.1,-,N/A,,Overcast,280,2013-03-27 01:56:00
10:56 PM,37.9,25.0,60,30.31,10.0,WNW,5.8,-,N/A,,Overcast,300,2013-03-27 02:56:00
11:56 PM,37.0,26.1,65,30.31,10.0,WNW,8.1,-,N/A,,Overcast,290,2013-03-27 03:56:00